This demonstration page uses our WeatherBlox Daily Observations layout. Learn more.

Left ArrowRight Arrow

Hourly Observations for May 21, 2015

Temp ( °F °C ) Dew Point ( °F °C ) Humidity (%) Winds ( mph kmh ) Pressure ( in mb ) Visibility ( mi km ) Precip ( " mm )
12:53 am 00:53 Cloudy 58 14.4 51 10.6 78 78 ENE 13 20 30.05 1018 10 16 0.00 0.03
1:53 am 01:53 Cloudy 58 14.4 50 10 75 75 NE 14 22 30.06 1018 10 16 0.00 0.00
2:53 am 02:53 Cloudy 57 13.9 50 10 78 78 NE 10 17 30.04 1017 10 16 0.00 0.00
3:53 am 03:53 Cloudy 57 13.9 50 10 78 78 ENE 14 22 30.06 1018 10 16 0.00 0.00
4:05 am 04:05 Cloudy with Light Rain 57 13.9 50 10 78 78 ENE 9 15 30.12 1020 10 16 0.00 0.03
4:53 am 04:53 Cloudy with Light Rain 55 12.8 50 10 83 83 ENE 13 20 30.06 1018 7 11 0.00 0.03
5:53 am 05:53 Cloudy 55 12.8 50 10 83 83 E 10 17 30.07 1018 10 16 0.00 0.03
6:53 am 06:53 Cloudy with Mist and Fog 54 12.2 50 10 87 87 ENE 9 15 30.09 1019 5 8 0.00 0.00
7:53 am 07:53 Cloudy 54 12.2 50 10 87 87 ENE 10 17 30.12 1020 10 16 0.00 0.00
8:53 am 08:53 Cloudy 54 12.2 49 9.4 83 83 ENE 14 22 30.12 1020 10 16 0.00 0.03
9:53 am 09:53 Cloudy 55 12.8 49 9.4 80 80 E 12 19 30.15 1021 10 16 0.00 0.00
10:34 am 10:34 Cloudy 54 12 48 9 82 82 ENE 13 20 30.18 1022 10 16 0.00 0.00
10:53 am 10:53 Cloudy 55 12.8 48 8.9 77 77 E 14 22 30.14 1021 10 16 0.00 0.00
11:53 am 11:53 Cloudy 55 12.8 47 8.3 74 74 E 12 19 30.13 1020 10 16 0.00 0.00
12:53 pm 12:53 Cloudy 56 13.3 47 8.3 72 72 ENE 14 22 30.14 1021 10 16 0.00 0.00
1:33 pm 13:33 Cloudy 57 13.9 47 8.3 69 69 ENE 12 19 30.15 1021 10 16 0.00 0.00
1:53 pm 13:53 Cloudy 57 13.9 47 8.3 69 69 ENE 9 15 30.13 1020 10 16 0.00 0.00
2:53 pm 14:53 Cloudy 57 13.9 48 8.9 72 72 E 12 19 30.11 1020 10 16 0.00 0.00
3:53 pm 15:53 Cloudy 57 13.9 48 8.9 72 72 E 10 17 30.10 1019 10 16 0.00 0.00
4:19 pm 16:19 Cloudy with Light Rain 55 12.8 50 10 83 83 E 10 17 30.12 1020 3 5 0.00 0.03
4:37 pm 16:37 Cloudy with Haze 56 13.3 50 10 81 81 E 13 20 30.12 1020 4 6 0.00 0.03
4:53 pm 16:53 Cloudy 57 13.9 50 10 78 78 ENE 9 15 30.06 1018 9 14 0.00 0.03
5:09 pm 17:09 Cloudy 56 13.3 49 9.4 77 77 ENE 8 13 30.09 1019 10 16 0.00 0.00
5:53 pm 17:53 Cloudy 56 13.3 49 9.4 77 77 E 9 15 30.06 1018 10 16 0.00 0.00
6:53 pm 18:53 Cloudy 55 12.8 50 10 83 83 E 10 17 30.03 1017 9 14 0.00 0.00
7:53 pm 19:53 Cloudy 56 13.3 51 10.6 84 84 E 9 15 30.03 1017 7 11 0.00 0.00
8:53 pm 20:53 Cloudy 56 13.3 51 10.6 84 84 E 12 19 30.01 1016 8 13 0.00 0.00
9:53 pm 21:53 Cloudy with Mist and Fog 55 12.8 52 11.1 90 90 ENE 7 11 30.02 1017 4 6 0.00 0.00
10:36 pm 22:36 Cloudy with Mist and Fog 55 13 52 11 88 88 E 7 11 30.06 1018 3 4 0.00 0.00
10:43 pm 22:43 Cloudy with Mist and Fog 56 13.3 52 11.1 87 87 E 7 11 30.06 1018 3 5 0.00 0.00
10:53 pm 22:53 Cloudy with Mist and Fog 56 13.3 53 11.7 90 90 E 5 7 30.04 1017 3 5 0.00 0.00
11:53 pm 23:53 Cloudy with Mist and Fog 56 13.3 53 11.7 90 90 NE 9 15 30.02 1017 4 6 0.00 0.00

Powered by AerisWeather